SCP
0 0 0 0 0 0 0 0 0 0 0 0 0 0 0 0 0 0 0 0 0 0 0 0 0 0 0 0 0 0 0 0 0 -0 0 -0 0 0 0 0 0 0 0 0
0 0 0 0 0 0 0 0 0 0 0 0 0 0 0 0 0 0 0 0 0 0 0 0 0 0 0 0 0 0 0 0 0 -0 -0 0 0 0 0 0 0 0 0 0
0 0 0 0 0 0 0 0 0 0 0 0 0 0 0 0 0 0 0 0 0 0 0 0 0 0 0 0 0 0 0 0 0 0 0 0 0 0 0 0 0 0 0 0
0 0 0 0 0 0 0 0 0 0 0 0 0 0 0 0 0 0 0 0 0 0 0 0 0 0 0 0 0 0 0 0 0 0 0 0 0 0 0 0 0 0 0 0
0 0 0 0 0 0 0 0 0 0 0 0 0 0 0 0 0 0 0 0 0 0 0 0 0 0 0 0 0 0 0 0 0 0 0 0 0 0 0 0 0 0 0 -0
0 0 0 0 0 0 0 0 0 0 0 0 0 0 0 0 0 0 0 0 0 0 0 0 0 0 0 0 0 0 0 0 0 0 0 0 0 0 0 0 0 0 0 0
0 0 0 0 0 0 0 0 0 0 0 0 0 0 0 0 0 0 0 0 0 0 0 0 0 0 0 0 0 0 0 0 0 0 0 0 0 0 0 0 0 0 0 0
0 0 0 0 0 0 0 0 0 0 0 0 0 0 0 0 0 0 0 0 0 0 0 0 0 0 0 0 0 0 0 0 0 0 0 0 0 0 0 0 0 0 0 0
0 0 0 0 0 0 0 0 0 0 0 0 0 0 0 0 0 0 0 0 0 0 0 0 0 0 0 0 0 0 0 0 0 0 0 0 0 0 0 0 0 0 0 0
0 0 0 0 0 0 0 0 0 0 0 0 0 0 0 0 0 0 0 0 0 0 0 0 0 0 0 0 0 0 0 0 0 0 0 0 0 0 0 0 0 0 0 0
0 0 0 0 0 0 0 0 0 0 0 0 0 0 0 0 0 0 0 0 0 0 0 0 0 0 0 0 0 0 0 0 0 0 0 0 0 0 0 0 0 0 0 0
0 0 0 0 0 0 0 0 0 0 0 0 0 0 0 0 0 0 0 0 0 0 0 0 0 0 0 0 0 0 0 0 0 0 0 0 -0 0 0 0 0 0 0 0
0 0 0 0 0 0 0 0 0 0 0 0 0 0 0 0 0 0 0 0 0 0 0 0 0 0 0 0 0 0 0 0 0 0 0 0 0 0 0 0 0 0 0 0
0 0 0 0 0 0 0 0 0 0 0 0 0 0 0 0 0 0 0 0 0 0 0 0 0 0 0 0 0 0 0 0 0 0 0 0 0 0 0 0 0 0 0 0
0 0 0 0 0 0 0 0 0 0 0 0 0 0 0 0 0 0 0 0 0 0 0 0 0 0 0 0 0 0 0 0 0 0 0 0 0 0 0 0 0 0 0 0
0 0 0 0 0 0 0 6 0 0 0 0 0 0 0 0 0 0 0 0 0 0 0 0 0 0 0 0 0 0 0 0 0 0 0 0 0 0 0 0 0 0 0 0
0 0 0 0 0 0 0 0 0 0 0 0 0 0 0 0 0 0 0 0 0 0 0 0 0 0 0 0 0 0 0 0 0 0 0 0 0 0 0 0 0 0 0 0
0 0 0 0 0 0 0 0 0 0 0 0 0 0 0 0 0 0 0 0 0 0 0 0 0 0 0 0 0 0 0 0 0 0 0 0 0 0 0 0 0 0 0 0
0 0 0 0 0 2 0 0 0 0 0 0 0 0 0 0 0 0 0 0 0 0 0 0 0 0 0 0 0 0 0 0 0 0 0 0 0 0 0 0 0 0 0 0
0 0 0 0 0 0 0 0 0 0 0 0 0 0 0 0 0 0 0 0 0 0 0 0 0 0 0 0 0 0 0 0 0 0 0 0 0 0 0 0 0 0 0 0
0 0 0 0 0 0 0 0 0 0 0 0 0 0 0 0 0 0 0 0 0 0 0 0 0 0 0 0 0 0 0 0 0 0 0 0 0 0 0 0 0 0 0 0
0 0 0 0 0 0 0 0 0 0 0 0 0 0 0 0 0 0 0 0 0 0 0 0 0 0 0 0 0 0 0 0 0 0 0 0 0 0 0 0 0 0 0 0
0 0 0 0 0 0 0 0 0 0 0 0 0 0 0 0 0 0 0 0 0 0 0 0 0 0 0 0 0 0 0 0 0 0 0 0 0 0 0 0 0 0 0 0
0 0 0 0 0 0 0 0 0 0 0 0 0 0 0 0 0 0 0 0 0 0 0 0 0 0 0 0 0 0 0 0 0 0 0 0 0 0 0 0 0 0 0 0
0 0 0 0 0 0 0 0 0 0 0 0 0 0 0 0 0 0 0 0 0 0 0 0 0 0 0 0 0 0 0 0 0 0 0 0 0 0 0 0 0 0 0 0
0 0 0 0 0 0 0 0 0 0 0 0 0 0 0 0 0 0 0 0 0 0 0 0 0 0 0 0 0 0 0 0 0 0 0 0 0 0 0 0 0 0 0 0
0 0 0 0 0 0 0 0 0 0 0 0 0 0 0 0 0 0 0 0 0 0 0 0 0 0 0 0 0 0 0 0 0 0 0 0 0 0 0 0 0 0 0 0
Wind_Speed_500mb
99 87 98 103 99 89 78 54 7 52 61 15 7 7 11 10 9 7 5 5 8 12 11 9 7 13 6 4 12 10 4 8 6 4 3 1 2 2 6 7 5 4 3 11
107 100 101 114 110 104 93 49 15 53 67 12 5 2 3 8 10 10 12 8 6 5 12 9 8 7 4 8 2 10 5 3 5 12 7 5 6 8 7 8 5 8 6 10
96 107 121 123 120 113 93 34 9 13 25 9 16 13 10 8 11 9 10 9 10 8 6 8 9 7 2 7 3 10 7 3 8 11 8 7 8 9 7 11 6 5 11 12
99 113 131 118 126 123 95 45 14 25 16 22 13 16 18 14 12 9 16 4 9 14 9 5 5 5 5 7 6 3 9 5 3 7 6 3 7 8 17 15 10 12 8 10
97 126 141 129 126 130 85 43 18 21 20 51 20 23 18 26 12 18 12 9 18 13 13 15 20 17 9 11 8 6 2 4 5 8 8 4 9 14 16 12 8 19 21 35
103 138 132 135 129 144 61 60 47 47 35 23 27 17 19 25 28 14 12 24 14 13 6 24 40 22 28 22 14 8 7 11 6 9 8 7 14 16 23 10 9 13 13 20
102 119 156 156 145 143 108 85 69 22 11 26 37 31 23 27 29 22 13 42 14 27 67 67 57 62 50 45 29 10 10 9 6 6 9 4 10 7 14 15 12 27 13 11
90 132 151 168 154 134 128 92 86 32 8 29 30 24 18 39 22 9 13 17 17 81 26 9 11 9 11 12 11 13 10 7 5 7 6 12 8 8 14 13 10 16 27 17
91 113 166 151 141 126 145 87 104 69 16 29 36 41 49 15 10 7 8 23 85 31 8 8 11 10 11 6 11 13 5 8 7 7 6 12 8 7 10 10 8 1 18 13
94 94 155 136 142 126 152 96 108 85 26 30 59 39 47 33 17 10 16 27 20 9 5 6 7 8 5 12 21 11 4 5 10 7 4 17 13 17 17 11 11 14 12 13
97 97 122 142 145 145 157 108 110 93 45 41 59 58 61 40 40 14 35 16 6 5 5 8 9 7 13 7 7 17 15 15 8 7 6 18 28 16 16 9 14 15 14 16
101 99 103 154 159 149 156 75 125 90 64 24 58 59 69 81 86 63 69 13 30 32 9 5 8 5 3 12 8 6 8 15 13 18 15 7 66 6 23 23 18 14 12 14
104 103 106 109 120 156 153 91 121 87 33 20 52 48 52 77 78 72 35 18 33 27 18 18 6 8 8 10 11 6 9 14 7 6 9 28 49 51 24 24 26 23 27 27
106 104 104 109 128 154 154 99 110 108 37 11 15 49 54 68 60 59 54 62 53 50 33 11 6 7 17 7 5 7 10 26 14 9 18 16 39 52 49 42 33 33 33 35
107 100 99 109 127 145 160 104 100 125 82 12 20 43 55 62 62 57 47 50 72 49 13 5 5 13 10 3 5 5 21 16 14 12 29 20 10 11 7 21 13 18 17 21
101 97 101 101 107 153 142 18 86 113 87 21 7 11 27 54 57 52 56 68 52 30 13 7 11 14 10 10 9 15 67 49 50 17 20 18 24 20 20 23 18 17 23 18
100 96 95 101 110 146 123 45 52 115 88 25 7 5 21 51 55 37 51 53 27 20 14 9 16 14 23 5 9 17 60 71 66 49 41 33 45 26 19 13 15 16 13 15
98 94 91 89 98 134 114 66 39 118 62 22 10 5 11 37 15 14 20 18 20 13 15 17 8 15 4 8 16 31 45 49 44 43 51 52 33 29 30 24 25 25 31 34
88 82 80 82 60 33 65 67 70 99 29 16 10 17 9 29 11 16 12 13 5 13 5 7 20 8 13 17 35 57 62 48 38 46 50 47 51 48 46 45 47 44 33 21
80 80 17 15 42 58 77 66 21 16 9 11 6 23 10 34 15 8 12 9 8 8 5 28 6 8 23 28 38 51 55 59 42 43 34 41 48 47 41 37 34 30 25 26
43 14 11 72 87 47 11 11 8 9 7 13 14 15 17 18 8 8 12 7 7 7 7 10 7 10 12 59 47 40 45 56 53 44 42 37 42 41 43 44 42 38 38 42
29 49 65 43 12 9 9 6 5 6 11 13 14 19 25 20 17 8 7 6 7 11 19 8 8 8 22 53 69 71 66 64 59 52 49 48 47 47 46 44 41 42 40 35
77 23 12 9 3 6 10 12 6 8 10 23 30 16 18 13 12 6 6 7 6 31 6 9 8 5 31 45 55 51 42 36 33 30 29 26 25 23 21 23 27 26 22 20
17 8 9 6 4 5 2 3 7 6 29 55 44 13 8 12 5 7 9 5 9 6 7 13 5 33 42 41 38 33 31 25 23 22 20 18 17 14 15 17 16 16 17 18
13 11 9 9 2 7 5 3 14 32 59 46 23 18 12 5 9 5 9 8 10 16 11 6 12 42 45 37 34 31 29 28 26 26 24 21 20 19 16 16 17 18 20 20
13 19 7 5 4 5 9 25 27 38 46 35 18 8 7 6 10 9 9 18 14 7 5 16 39 44 38 36 31 29 26 26 25 23 22 21 21 21 19 18 17 17 16 13
11 7 24 15 14 7 9 17 13 20 12 5 5 8 6 7 6 6 6 9 2 8 28 30 32 37 34 29 25 25 24 24 23 22 20 18 17 18 18 18 16 13 10 9
Wind_Direction_500mb
224 222 222 202 192 191 182 169 141 163 164 152 186 184 190 158 174 174 138 118 125 154 163 145 172 170 100 179 148 149 302 126 127 224 279 30 180 188 130 118 289 297 138 277
224 224 218 204 192 191 175 163 110 166 173 168 225 3 342 199 146 196 161 171 152 153 150 117 149 143 68 83 77 140 209 325 58 348 349 21 248 203 160 122 92 215 151 259
226 220 211 204 193 189 177 152 129 159 206 206 153 149 204 189 210 193 169 142 119 109 107 25 148 127 99 100 61 96 85 103 185 183 175 136 176 181 182 133 129 210 234 292
220 215 206 211 198 191 177 176 192 176 176 218 190 166 156 142 168 226 179 351 192 156 117 76 132 115 122 78 160 56 103 175 19 295 279 218 212 183 180 202 199 171 226 242
222 216 210 207 202 191 180 170 153 160 182 191 174 185 209 167 177 151 225 202 174 174 158 183 185 141 189 173 181 158 94 160 76 297 322 351 269 229 220 213 236 274 271 284
213 210 209 207 205 191 189 191 182 165 163 166 182 197 182 192 137 218 206 165 131 145 177 110 115 109 128 133 136 146 129 125 90 274 344 3 314 223 185 201 204 168 194 224
219 217 207 208 205 203 195 193 172 160 174 172 193 176 176 172 185 147 177 167 121 139 120 103 88 83 74 67 44 77 136 102 105 219 358 347 246 123 176 191 228 216 254 238
222 216 208 202 207 206 196 191 187 179 136 183 179 176 156 135 107 87 129 165 165 147 136 80 66 1 26 355 22 2 355 121 90 128 194 287 303 212 164 172 274 208 227 252
212 208 202 203 207 207 199 197 191 193 143 209 180 179 171 151 125 50 95 128 151 160 102 94 145 174 173 249 355 355 354 50 109 86 152 222 230 182 170 124 312 156 181 213
213 210 203 217 215 212 201 195 191 194 198 199 173 175 179 157 134 110 135 148 171 157 110 116 156 198 181 165 161 174 83 13 157 133 235 286 233 171 155 91 226 176 169 172
213 211 216 212 214 213 203 201 195 195 196 180 188 178 172 158 155 144 153 111 216 85 145 140 180 148 208 103 180 166 160 150 190 98 92 275 167 123 176 191 156 172 187 195
213 211 208 204 207 210 207 197 192 193 192 187 189 191 195 191 180 161 168 158 155 169 114 182 114 129 115 154 207 144 210 183 183 183 203 284 183 183 180 165 156 185 211 227
213 211 211 214 222 212 212 201 193 189 175 158 191 196 194 195 197 196 150 192 169 180 155 154 157 159 142 165 230 126 237 178 175 115 220 216 215 215 203 219 247 251 265 264
212 210 214 213 214 214 210 197 196 184 172 133 189 198 196 194 196 197 197 195 175 169 157 122 145 143 198 197 164 161 173 145 170 268 267 265 254 241 240 241 259 264 270 268
209 208 209 210 214 212 206 198 199 194 184 140 146 176 192 193 196 198 203 194 174 159 132 116 163 140 131 13 66 234 192 172 173 212 191 188 186 168 213 203 249 275 262 280
206 205 204 207 211 205 189 175 191 188 190 139 143 154 178 180 186 186 185 184 167 169 126 145 173 174 161 153 200 234 206 204 196 169 177 225 265 232 216 269 269 252 273 260
203 205 204 206 209 197 184 194 191 187 182 153 104 95 139 160 160 150 160 169 159 160 143 164 152 176 175 132 202 227 210 220 220 225 243 255 252 252 260 249 249 232 239 262
203 205 204 207 209 199 189 199 194 185 172 134 124 128 150 158 128 122 151 140 140 151 146 149 136 127 97 247 210 200 209 219 218 213 230 237 246 247 261 250 235 255 273 277
200 201 202 201 186 160 182 181 175 173 170 135 140 150 166 167 123 124 147 146 130 142 145 180 156 159 217 212 194 196 200 205 211 212 222 233 243 250 258 265 267 271 279 280
190 186 150 103 142 148 150 150 153 153 144 123 113 129 148 159 152 130 126 130 144 163 175 142 197 243 236 208 203 204 201 205 207 209 211 219 232 239 247 259 271 265 265 264
157 95 86 127 135 136 113 137 155 138 123 140 128 136 132 167 131 130 171 151 161 145 187 164 198 255 214 205 189 181 192 204 212 219 239 243 246 245 250 252 255 262 263 262
135 126 128 125 110 95 113 121 129 165 158 159 142 143 127 136 135 117 171 126 165 170 137 147 238 234 174 185 197 205 214 221 227 238 245 249 249 250 252 254 257 257 259 263
115 101 68 88 47 105 141 152 141 144 168 156 154 132 126 120 107 101 130 137 151 127 136 217 236 200 165 168 177 182 190 198 206 218 233 241 244 245 248 244 245 252 248 238
70 72 84 68 77 77 47 134 132 134 136 137 133 105 112 121 101 131 109 123 134 134 171 229 234 184 161 161 165 169 167 175 188 199 211 214 208 191 185 186 185 191 201 201
69 48 54 52 120 25 347 52 108 130 134 131 109 79 95 99 105 87 121 156 185 201 215 218 175 161 162 155 160 163 165 170 177 185 185 186 187 191 191 185 188 198 207 207
56 42 61 14 63 358 31 98 105 123 114 102 84 102 98 106 124 136 184 160 199 210 188 140 146 148 151 155 159 165 173 179 180 180 185 185 182 184 191 190 193 193 196 200
46 35 28 35 52 31 23 48 69 125 76 68 97 82 71 119 102 132 190 193 199 116 118 133 140 140 140 144 151 159 163 170 175 177 178 180 180 180 184 187 195 205 215 238
Wind_Speed_850mb
99 87 98 103 99 89 78 54 7 52 61 15 7 7 11 10 9 7 5 5 8 12 11 9 7 13 6 4 12 10 4 8 6 4 3 1 2 2 6 7 5 4 3 11
107 100 101 114 110 104 93 49 15 53 67 12 5 2 3 8 10 10 12 8 6 5 12 9 8 7 4 8 2 10 5 3 5 12 7 5 6 8 7 8 5 8 6 10
96 107 121 123 120 113 93 34 9 13 25 9 16 13 10 8 11 9 10 9 10 8 6 8 9 7 2 7 3 10 7 3 8 11 8 7 8 9 7 11 6 5 11 12
99 113 131 118 126 123 95 45 14 25 16 22 13 16 18 14 12 9 16 4 9 14 9 5 5 5 5 7 6 3 9 5 3 7 6 3 7 8 17 15 10 12 8 10
97 126 141 129 126 130 85 43 18 21 20 51 20 23 18 26 12 18 12 9 18 13 13 15 20 17 9 11 8 6 2 4 5 8 8 4 9 14 16 12 8 19 21 35
103 138 132 135 129 144 61 60 47 47 35 23 27 17 19 25 28 14 12 24 14 13 6 24 40 22 28 22 14 8 7 11 6 9 8 7 14 16 23 10 9 13 13 20
102 119 156 156 145 143 108 85 69 22 11 26 37 31 23 27 29 22 13 42 14 27 67 67 57 62 50 45 29 10 10 9 6 6 9 4 10 7 14 15 12 27 13 11
90 132 151 168 154 134 128 92 86 32 8 29 30 24 18 39 22 9 13 17 17 81 26 9 11 9 11 12 11 13 10 7 5 7 6 12 8 8 14 13 10 16 27 17
91 113 166 151 141 126 145 87 104 69 16 29 36 41 49 15 10 7 8 23 85 31 8 8 11 10 11 6 11 13 5 8 7 7 6 12 8 7 10 10 8 1 18 13
94 94 155 136 142 126 152 96 108 85 26 30 59 39 47 33 17 10 16 27 20 9 5 6 7 8 5 12 21 11 4 5 10 7 4 17 13 17 17 11 11 14 12 13
97 97 122 142 145 145 157 108 110 93 45 41 59 58 61 40 40 14 35 16 6 5 5 8 9 7 13 7 7 17 15 15 8 7 6 18 28 16 16 9 14 15 14 16
101 99 103 154 159 149 156 75 125 90 64 24 58 59 69 81 86 63 69 13 30 32 9 5 8 5 3 12 8 6 8 15 13 18 15 7 66 6 23 23 18 14 12 14
104 103 106 109 120 156 153 91 121 87 33 20 52 48 52 77 78 72 35 18 33 27 18 18 6 8 8 10 11 6 9 14 7 6 9 28 49 51 24 24 26 23 27 27
106 104 104 109 128 154 154 99 110 108 37 11 15 49 54 68 60 59 54 62 53 50 33 11 6 7 17 7 5 7 10 26 14 9 18 16 39 52 49 42 33 33 33 35
107 100 99 109 127 145 160 104 100 125 82 12 20 43 55 62 62 57 47 50 72 49 13 5 5 13 10 3 5 5 21 16 14 12 29 20 10 11 7 21 13 18 17 21
101 97 101 101 107 153 142 18 86 113 87 21 7 11 27 54 57 52 56 68 52 30 13 7 11 14 10 10 9 15 67 49 50 17 20 18 24 20 20 23 18 17 23 18
100 96 95 101 110 146 123 45 52 115 88 25 7 5 21 51 55 37 51 53 27 20 14 9 16 14 23 5 9 17 60 71 66 49 41 33 45 26 19 13 15 16 13 15
98 94 91 89 98 134 114 66 39 118 62 22 10 5 11 37 15 14 20 18 20 13 15 17 8 15 4 8 16 31 45 49 44 43 51 52 33 29 30 24 25 25 31 34
88 82 80 82 60 33 65 67 70 99 29 16 10 17 9 29 11 16 12 13 5 13 5 7 20 8 13 17 35 57 62 48 38 46 50 47 51 48 46 45 47 44 33 21
80 80 17 15 42 58 77 66 21 16 9 11 6 23 10 34 15 8 12 9 8 8 5 28 6 8 23 28 38 51 55 59 42 43 34 41 48 47 41 37 34 30 25 26
43 14 11 72 87 47 11 11 8 9 7 13 14 15 17 18 8 8 12 7 7 7 7 10 7 10 12 59 47 40 45 56 53 44 42 37 42 41 43 44 42 38 38 42
29 49 65 43 12 9 9 6 5 6 11 13 14 19 25 20 17 8 7 6 7 11 19 8 8 8 22 53 69 71 66 64 59 52 49 48 47 47 46 44 41 42 40 35
77 23 12 9 3 6 10 12 6 8 10 23 30 16 18 13 12 6 6 7 6 31 6 9 8 5 31 45 55 51 42 36 33 30 29 26 25 23 21 23 27 26 22 20
17 8 9 6 4 5 2 3 7 6 29 55 44 13 8 12 5 7 9 5 9 6 7 13 5 33 42 41 38 33 31 25 23 22 20 18 17 14 15 17 16 16 17 18
13 11 9 9 2 7 5 3 14 32 59 46 23 18 12 5 9 5 9 8 10 16 11 6 12 42 45 37 34 31 29 28 26 26 24 21 20 19 16 16 17 18 20 20
13 19 7 5 4 5 9 25 27 38 46 35 18 8 7 6 10 9 9 18 14 7 5 16 39 44 38 36 31 29 26 26 25 23 22 21 21 21 19 18 17 17 16 13
11 7 24 15 14 7 9 17 13 20 12 5 5 8 6 7 6 6 6 9 2 8 28 30 32 37 34 29 25 25 24 24 23 22 20 18 17 18 18 18 16 13 10 9
Wind_Direction_850mb
224 222 222 202 192 191 182 169 141 163 164 152 186 184 190 158 174 174 138 118 125 154 163 145 172 170 100 179 148 149 302 126 127 224 279 30 180 188 130 118 289 297 138 277
224 224 218 204 192 191 175 163 110 166 173 168 225 3 342 199 146 196 161 171 152 153 150 117 149 143 68 83 77 140 209 325 58 348 349 21 248 203 160 122 92 215 151 259
226 220 211 204 193 189 177 152 129 159 206 206 153 149 204 189 210 193 169 142 119 109 107 25 148 127 99 100 61 96 85 103 185 183 175 136 176 181 182 133 129 210 234 292
220 215 206 211 198 191 177 176 192 176 176 218 190 166 156 142 168 226 179 351 192 156 117 76 132 115 122 78 160 56 103 175 19 295 279 218 212 183 180 202 199 171 226 242
222 216 210 207 202 191 180 170 153 160 182 191 174 185 209 167 177 151 225 202 174 174 158 183 185 141 189 173 181 158 94 160 76 297 322 351 269 229 220 213 236 274 271 284
213 210 209 207 205 191 189 191 182 165 163 166 182 197 182 192 137 218 206 165 131 145 177 110 115 109 128 133 136 146 129 125 90 274 344 3 314 223 185 201 204 168 194 224
219 217 207 208 205 203 195 193 172 160 174 172 193 176 176 172 185 147 177 167 121 139 120 103 88 83 74 67 44 77 136 102 105 219 358 347 246 123 176 191 228 216 254 238
222 216 208 202 207 206 196 191 187 179 136 183 179 176 156 135 107 87 129 165 165 147 136 80 66 1 26 355 22 2 355 121 90 128 194 287 303 212 164 172 274 208 227 252
212 208 202 203 207 207 199 197 191 193 143 209 180 179 171 151 125 50 95 128 151 160 102 94 145 174 173 249 355 355 354 50 109 86 152 222 230 182 170 124 312 156 181 213
213 210 203 217 215 212 201 195 191 194 198 199 173 175 179 157 134 110 135 148 171 157 110 116 156 198 181 165 161 174 83 13 157 133 235 286 233 171 155 91 226 176 169 172
213 211 216 212 214 213 203 201 195 195 196 180 188 178 172 158 155 144 153 111 216 85 145 140 180 148 208 103 180 166 160 150 190 98 92 275 167 123 176 191 156 172 187 195
213 211 208 204 207 210 207 197 192 193 192 187 189 191 195 191 180 161 168 158 155 169 114 182 114 129 115 154 207 144 210 183 183 183 203 284 183 183 180 165 156 185 211 227
213 211 211 214 222 212 212 201 193 189 175 158 191 196 194 195 197 196 150 192 169 180 155 154 157 159 142 165 230 126 237 178 175 115 220 216 215 215 203 219 247 251 265 264
212 210 214 213 214 214 210 197 196 184 172 133 189 198 196 194 196 197 197 195 175 169 157 122 145 143 198 197 164 161 173 145 170 268 267 265 254 241 240 241 259 264 270 268
209 208 209 210 214 212 206 198 199 194 184 140 146 176 192 193 196 198 203 194 174 159 132 116 163 140 131 13 66 234 192 172 173 212 191 188 186 168 213 203 249 275 262 280
206 205 204 207 211 205 189 175 191 188 190 139 143 154 178 180 186 186 185 184 167 169 126 145 173 174 161 153 200 234 206 204 196 169 177 225 265 232 216 269 269 252 273 260
203 205 204 206 209 197 184 194 191 187 182 153 104 95 139 160 160 150 160 169 159 160 143 164 152 176 175 132 202 227 210 220 220 225 243 255 252 252 260 249 249 232 239 262
203 205 204 207 209 199 189 199 194 185 172 134 124 128 150 158 128 122 151 140 140 151 146 149 136 127 97 247 210 200 209 219 218 213 230 237 246 247 261 250 235 255 273 277
200 201 202 201 186 160 182 181 175 173 170 135 140 150 166 167 123 124 147 146 130 142 145 180 156 159 217 212 194 196 200 205 211 212 222 233 243 250 258 265 267 271 279 280
190 186 150 103 142 148 150 150 153 153 144 123 113 129 148 159 152 130 126 130 144 163 175 142 197 243 236 208 203 204 201 205 207 209 211 219 232 239 247 259 271 265 265 264
157 95 86 127 135 136 113 137 155 138 123 140 128 136 132 167 131 130 171 151 161 145 187 164 198 255 214 205 189 181 192 204 212 219 239 243 246 245 250 252 255 262 263 262
135 126 128 125 110 95 113 121 129 165 158 159 142 143 127 136 135 117 171 126 165 170 137 147 238 234 174 185 197 205 214 221 227 238 245 249 249 250 252 254 257 257 259 263
115 101 68 88 47 105 141 152 141 144 168 156 154 132 126 120 107 101 130 137 151 127 136 217 236 200 165 168 177 182 190 198 206 218 233 241 244 245 248 244 245 252 248 238
70 72 84 68 77 77 47 134 132 134 136 137 133 105 112 121 101 131 109 123 134 134 171 229 234 184 161 161 165 169 167 175 188 199 211 214 208 191 185 186 185 191 201 201
69 48 54 52 120 25 347 52 108 130 134 131 109 79 95 99 105 87 121 156 185 201 215 218 175 161 162 155 160 163 165 170 177 185 185 186 187 191 191 185 188 198 207 207
56 42 61 14 63 358 31 98 105 123 114 102 84 102 98 106 124 136 184 160 199 210 188 140 146 148 151 155 159 165 173 179 180 180 185 185 182 184 191 190 193 193 196 200
46 35 28 35 52 31 23 48 69 125 76 68 97 82 71 119 102 132 190 193 199 116 118 133 140 140 140 144 151 159 163 170 175 177 178 180 180 180 184 187 195 205 215 238